(107673) = 1998 RU33 = 2001 FV6

Discovered at Socorro on 2001-03-19 by LINEAR.

Orbit

Orbit type: Mars-crosser

Note: WebGL enabled browser required.

epoch2023-09-13.0
epoch JD2460200.5
perihelion date2020-03-09.80228
perihelion JD2458918.30228
argument of perihelion (°)252.08063
ascending node (°)29.52834
inclination (°)5.18974
eccentricity0.3486750
perihelion distance (AU)1.5418777
Tisserand w.r.t. Jupiter3.5
ΔV w.r.t. Earth (km/sec)7.9
semimajor axis (AU)2.3672939
mean anomaly (°)346.96093
mean daily motion (°/day)0.27059860
aphelion distance (AU)3.193
period (years)3.64
P-vector [x]0.19930887
P-vector [y]-0.86136478
P-vector [z]-0.46725441
Q-vector [x]0.97892213
Q-vector [y]0.19670343
Q-vector [z]0.05494749
absolute magnitude15.75
phase slope0.15
uncertainty0
referenceMPEC 2024-A34
observations used1111
oppositions17
arc length (days)9090
first opposition used1998
last opposition used2023
residual rms (arc-secs)0.66
perturbers coarse indicatorM-v
perturbers precise indicator003Ek
first observation date used1998-09-14.0
last observation date used2023-08-04.0
computer nameMPCLINUX
JD of orbit computation2456670.749109
perihelion JD uncertainty (days)5.7854E-05
argument of perihelion uncertainty (°)4.8091E-05
ascending node uncertainty (°)4.6142E-05
inclination uncertainty (°)7.0597E-06
eccentricity uncertainty 3.4889E-08
perihelion distance uncertainty (AU)8.4438E-08
Minimum Orbit Intersection Distances (in AU)
for orbit epoch: 2460200.5, reference: E2024-A34
Mercury1.08237
Venus0.81685
Earth0.53568
Mars0.1232
Jupiter1.99494
Saturn5.89054
Uranus15.5471
Neptune26.9001

Observations

1130 total observations over interval: 1998 09 14.25051 – 2023 08 04.736505
These data are available for download (format description).

Date (UT) J2000 RA J2000 Dec Magn Location Ref
1998 09 14.25051 23 17 07.67 -12 55 29.6 18.1   704 – Lincoln Laboratory ETS, New Mexico MPS 2313
1998 09 14.27256 23 17 06.29 -12 55 28.7 18.5   704 – Lincoln Laboratory ETS, New Mexico MPS 2313
1998 09 14.29449 23 17 04.86 -12 55 29.4 18.8   704 – Lincoln Laboratory ETS, New Mexico MPS 2313
1998 09 14.31660 23 17 03.51 -12 55 29.2   704 – Lincoln Laboratory ETS, New Mexico MPS 2313
1998 09 18.31051 23 13 13.89 -12 53 48.0 17.8   704 – Lincoln Laboratory ETS, New Mexico MPS 2313
1998 09 18.32332 23 13 13.16 -12 53 46.2 18.5   704 – Lincoln Laboratory ETS, New Mexico MPS 2313
1998 09 18.33637 23 13 12.38 -12 53 44.9 18.4   704 – Lincoln Laboratory ETS, New Mexico MPS 2313
1998 09 18.34954 23 13 11.68 -12 53 45.1 18.0   704 – Lincoln Laboratory ETS, New Mexico MPS 2313
1998 09 18.36282 23 13 10.91 -12 53 44.1 18.0   704 – Lincoln Laboratory ETS, New Mexico MPS 2313
2001 02 17.31009 11 07 44.18 +12 44 11.5 18.9   704 – Lincoln Laboratory ETS, New Mexico MPS 28211
2001 02 17.32423 11 07 43.39 +12 44 16.6 19.0   704 – Lincoln Laboratory ETS, New Mexico MPS 28211
2001 02 17.33836 11 07 42.52 +12 44 20.6 19.1   704 – Lincoln Laboratory ETS, New Mexico MPS 28211
2001 02 17.35248 11 07 41.70 +12 44 26.9 19.1   704 – Lincoln Laboratory ETS, New Mexico MPS 28211
2001 03 19.24386 10 35 48.62 +15 19 17.0 18.4   704 – Lincoln Laboratory ETS, New Mexico MPS 28211
2001 03 19.25689 10 35 47.80 +15 19 20.0 18.6   704 – Lincoln Laboratory ETS, New Mexico MPS 28211
2001 03 19.26075 10 35 47.51 +15 19 21.3 19.4   704 – Lincoln Laboratory ETS, New Mexico MPS 28211
2001 03 19.26985 10 35 46.94 +15 19 21.6 18.8   704 – Lincoln Laboratory ETS, New Mexico MPS 28211
2001 03 19.27502 10 35 46.68 +15 19 22.9 18.7   704 – Lincoln Laboratory ETS, New Mexico MPS 28211
2001 03 19.28279 10 35 46.20 +15 19 24.8 18.5   704 – Lincoln Laboratory ETS, New Mexico MPS 28211
2001 03 19.28891 10 35 45.78 +15 19 25.7 18.2   704 – Lincoln Laboratory ETS, New Mexico MPS 28211
2001 03 19.29577 10 35 45.36 +15 19 27.9 18.9   704 – Lincoln Laboratory ETS, New Mexico MPS 28211
2001 03 19.30178 10 35 44.94 +15 19 29.1 18.7   704 – Lincoln Laboratory ETS, New Mexico MPS 28211
2001 03 20.23597 10 34 48.46 +15 22 36.5 18.5   704 – Lincoln Laboratory ETS, New Mexico MPS 28211
2001 03 20.26088 10 34 46.94 +15 22 42.8 19.2   704 – Lincoln Laboratory ETS, New Mexico MPS 28211
2001 03 21.10034 10 33 56.81 +15 25 27.9 18.8 V 859 – Wykrota Observatory-CEAMIG MPS 28211
2001 03 21.10413 10 33 56.51 +15 25 29.4 18.5 V 859 – Wykrota Observatory-CEAMIG MPS 28211
2001 03 21.11167 10 33 56.21 +15 25 30.4 18.3 V 859 – Wykrota Observatory-CEAMIG MPS 28211
2001 03 21.25963 10 33 47.52 +15 25 53.2 19.9 V 926 – Tenagra II Observatory, Nogales MPS 28211
2001 03 21.26395 10 33 47.22 +15 25 53.4 20.2 V 926 – Tenagra II Observatory, Nogales MPS 28211
2001 03 21.26866 10 33 46.95 +15 25 54.5 19.5 V 926 – Tenagra II Observatory, Nogales MPS 28211
2001 03 26.23841 10 29 08.33 +15 38 59.6 18.6   704 – Lincoln Laboratory ETS, New Mexico MPS 28211
2001 03 26.25124 10 29 07.66 +15 39 01.9 18.5   704 – Lincoln Laboratory ETS, New Mexico MPS 28211
2001 03 26.26357 10 29 07.11 +15 39 03.6 18.7   704 – Lincoln Laboratory ETS, New Mexico MPS 28211
2001 03 26.27593 10 29 06.30 +15 39 04.1 19.4   704 – Lincoln Laboratory ETS, New Mexico MPS 28211
2002 10 07.33467 03 20 44.71 +19 35 50.6 19.2   704 – Lincoln Laboratory ETS, New Mexico MPS 63101
2002 10 07.35121 03 20 43.93 +19 35 49.5 19.8   704 – Lincoln Laboratory ETS, New Mexico MPS 63101
2002 10 07.36676 03 20 43.20 +19 35 48.5 19.9   704 – Lincoln Laboratory ETS, New Mexico MPS 63101
2002 10 09.32213 03 19 11.87 +19 34 37.1 19.7   704 – Lincoln Laboratory ETS, New Mexico MPS 63101
2002 10 09.35203 03 19 10.27 +19 34 37.8 19.8   704 – Lincoln Laboratory ETS, New Mexico MPS 63101
2002 10 09.36682 03 19 09.47 +19 34 37.4 19.7   704 – Lincoln Laboratory ETS, New Mexico MPS 63101
2002 10 09.38147 03 19 08.89 +19 34 37.5 19.4   704 – Lincoln Laboratory ETS, New Mexico MPS 63101
2002 10 31.40038 02 56 12.96 +18 51 46.9 20.3   644 – Palomar Mountain/NEAT MPS 65730
2002 10 31.42133 02 56 11.46 +18 51 43.4 20.3   644 – Palomar Mountain/NEAT MPS 65730
2002 10 31.44222 02 56 09.89 +18 51 39.5 18.6   644 – Palomar Mountain/NEAT MPS 65730
2002 11 02.49592 02 53 43.79 +18 45 20.6 19.8   608 – Haleakala-AMOS MPS 65730
2002 11 02.50762 02 53 42.94 +18 45 18.5 20.4   608 – Haleakala-AMOS MPS 65730
2002 11 02.51888 02 53 42.13 +18 45 16.5 20.0   608 – Haleakala-AMOS MPS 65730
2002 11 04.15908 02 51 45.70 +18 40 01.0 18.7 R 699 – Lowell Observatory-LONEOS MPS 65730
2002 11 04.17664 02 51 44.47 +18 39 57.4   699 – Lowell Observatory-LONEOS MPS 65730
2002 11 04.19418 02 51 43.09 +18 39 54.5   699 – Lowell Observatory-LONEOS MPS 65730
2002 11 04.21172 02 51 41.86 +18 39 51.7   699 – Lowell Observatory-LONEOS MPS 65730
2002 11 05.22696 02 50 29.62 +18 36 31.7 18.9   704 – Lincoln Laboratory ETS, New Mexico MPS 65730
2002 11 05.24407 02 50 28.36 +18 36 29.3 18.9   704 – Lincoln Laboratory ETS, New Mexico MPS 65730
2002 11 05.26125 02 50 27.09 +18 36 25.0 19.1   704 – Lincoln Laboratory ETS, New Mexico MPS 65730
2002 11 05.27869 02 50 25.87 +18 36 22.2 19.6   704 – Lincoln Laboratory ETS, New Mexico MPS 65730
2002 11 05.29610 02 50 24.56 +18 36 18.7 19.1   704 – Lincoln Laboratory ETS, New Mexico MPS 65730
2002 11 06.25817 02 49 16.51 +18 33 07.0 19.4   704 – Lincoln Laboratory ETS, New Mexico MPS 65730
2002 11 06.27483 02 49 15.30 +18 33 04.4 19.2   704 – Lincoln Laboratory ETS, New Mexico MPS 65730
2002 11 06.29151 02 49 14.07 +18 33 00.7 19.2   704 – Lincoln Laboratory ETS, New Mexico MPS 65730
2002 11 06.30822 02 49 12.82 +18 32 57.6 19.5   704 – Lincoln Laboratory ETS, New Mexico MPS 65730
2002 11 08.24622 02 46 56.65 +18 26 23.9 19.1   704 – Lincoln Laboratory ETS, New Mexico MPS 65730
2002 11 08.26375 02 46 55.41 +18 26 20.0 19.7   704 – Lincoln Laboratory ETS, New Mexico MPS 65730
2002 11 08.28114 02 46 54.12 +18 26 17.1 19.8   704 – Lincoln Laboratory ETS, New Mexico MPS 65730
2002 11 08.29850 02 46 52.87 +18 26 13.6 19.0   704 – Lincoln Laboratory ETS, New Mexico MPS 65730
2002 11 14.25035 02 40 07.82 +18 05 34.8 19.0   704 – Lincoln Laboratory ETS, New Mexico MPS 65730
2002 11 14.26859 02 40 06.67 +18 05 32.0 19.6   704 – Lincoln Laboratory ETS, New Mexico MPS 65730
2002 11 14.30437 02 40 04.11 +18 05 24.9 19.1   704 – Lincoln Laboratory ETS, New Mexico MPS 65730
2002 11 14.32232 02 40 02.87 +18 05 20.2 19.1   704 – Lincoln Laboratory ETS, New Mexico MPS 65730
2005 03 08.40627 14 49 52.28 -14 47 39.5 18.4 R 699 – Lowell Observatory-LONEOS MPS 127830
2005 03 08.42590 14 49 52.93 -14 47 46.5   699 – Lowell Observatory-LONEOS MPS 127830
2005 03 08.44546 14 49 53.68 -14 47 52.3   699 – Lowell Observatory-LONEOS MPS 127830
2005 03 08.46503 14 49 54.30 -14 47 58.3   699 – Lowell Observatory-LONEOS MPS 127830
2005 03 12.45865 14 52 13.43 -15 08 34.0 18.2 R G96 – Mt. Lemmon Survey MPS 128958
2005 03 12.46410 14 52 13.58 -15 08 35.4 18.8 R G96 – Mt. Lemmon Survey MPS 128958
2005 03 12.46955 14 52 13.76 -15 08 37.6 19.2 R G96 – Mt. Lemmon Survey MPS 128958
2005 03 12.47506 14 52 13.91 -15 08 39.4 19.1 R G96 – Mt. Lemmon Survey MPS 128958
2005 04 02.45897 14 56 15.21 -16 40 23.9 17.0 R G96 – Mt. Lemmon Survey MPS 130170
2005 04 02.46431 14 56 15.14 -16 40 25.0 17.1 R G96 – Mt. Lemmon Survey MPS 130170
2005 04 02.46963 14 56 15.06 -16 40 26.1 17.5 R G96 – Mt. Lemmon Survey MPS 130170
2005 04 02.47498 14 56 14.99 -16 40 27.3 18.0 R G96 – Mt. Lemmon Survey MPS 130170
2005 04 04.39526 14 55 51.00 -16 47 24.7 17.4   704 – Lincoln Laboratory ETS, New Mexico MPS 130641
2005 04 04.40571 14 55 50.79 -16 47 29.3 17.9   704 – Lincoln Laboratory ETS, New Mexico MPS 130641
2005 04 04.41722 14 55 50.54 -16 47 31.5 19.1   704 – Lincoln Laboratory ETS, New Mexico MPS 130641
2005 04 04.42752 14 55 50.33 -16 47 33.6 19.0   704 – Lincoln Laboratory ETS, New Mexico MPS 130641
2005 04 04.43820 14 55 50.16 -16 47 34.7 18.5   704 – Lincoln Laboratory ETS, New Mexico MPS 130641
2005 04 07.33572 14 54 57.82 -16 57 34.5 17.7   704 – Lincoln Laboratory ETS, New Mexico MPS 130641
